Terug naar catalogus

STARLINK-36033

ActiefCommunicatieVLEO
NORAD 66893·PAYLOAD·🇺🇸 United States

Gelanceerd Dec 4, 2025 vanaf Vandenberg Space Force Base

Loading…

Volgende Passages (komende 24 uur)

TLE

VersSource: CelesTrak SupGP

Epoch: Sep 15, 2026, 04:14 UTC

1 66893C 25283R   26258.17687500 -.00071536  00000+0 -21142-2 0  2582
2 66893  53.1584 222.6097 0001363  89.0756 334.4512 15.34417260    12

Volg STARLINK-36033 in realtime met AllMySat

Download on the App Store